Wind_Speed
43 45 45 47 44 41 44 47 49 48 45 46 44 43 41 39 37 37 36 35 34 32 30 33 34 32 31 29 28 28 27 29 29 27 25 22 20 20 19 19 18 16 14 12 13 13 14 14 14
44 46 47 45 44 45 46 44 47 45 47 46 45 45 44 42 43 40 38 38 37 36 34 33 34 34 34 33 31 30 30 30 30 28 25 23 20 20 21 20 20 20 19 17 14 14 14 14 13
48 47 46 46 47 46 48 46 46 45 45 44 46 46 44 42 46 44 44 42 41 39 37 37 35 35 34 33 33 32 32 31 31 29 27 25 22 21 23 21 21 21 21 21 19 16 14 15 16
47 47 48 48 50 51 52 48 48 49 50 50 47 50 45 46 46 46 47 46 44 43 41 39 38 36 35 35 35 34 34 32 30 29 28 26 23 22 24 24 22 22 22 21 21 19 17 17 17
48 49 48 49 51 51 52 50 51 53 52 53 53 55 52 51 51 51 50 49 47 47 44 44 41 40 37 35 34 34 33 32 31 29 29 28 24 23 25 26 25 24 23 24 24 23 20 20 21
52 51 51 51 53 54 58 57 60 61 62 61 62 61 63 57 62 59 59 58 55 52 49 48 48 45 41 39 35 34 35 34 32 30 29 28 26 25 26 27 26 26 24 24 24 24 23 22 23
51 52 53 54 55 57 60 61 63 64 66 69 67 72 72 67 68 68 67 65 63 59 56 53 52 51 47 44 41 37 37 37 36 33 31 30 29 28 27 29 28 27 27 25 24 25 25 25 24
54 55 54 55 59 61 64 68 69 69 70 73 75 75 78 74 72 76 73 72 69 67 64 58 55 55 54 50 47 43 40 40 38 37 35 34 33 31 30 30 30 30 28 27 28 28 27 26 24
59 60 61 61 62 65 66 69 72 72 75 78 78 76 77 75 73 79 79 79 77 73 71 67 62 58 58 56 53 50 46 44 41 40 39 37 36 34 32 32 31 31 29 30 30 27 27 27 24
59 60 60 63 65 66 68 69 74 77 79 82 80 80 80 79 78 80 80 79 78 78 76 72 68 66 65 60 57 54 52 48 46 44 42 40 38 37 34 32 32 32 29 29 29 26 27 26 25
63 63 66 66 66 67 69 69 70 74 79 82 81 78 76 76 76 79 83 84 85 82 78 75 75 72 71 68 61 59 55 53 51 50 46 44 41 39 36 34 33 32 30 30 29 27 28 27 27
61 63 63 62 61 62 66 71 74 77 82 86 83 83 83 81 79 80 78 83 82 81 84 81 75 75 75 72 70 65 63 59 56 55 53 49 45 42 40 38 36 34 32 32 31 28 29 29 30
57 59 59 61 64 67 69 73 75 78 85 86 87 85 85 86 85 81 81 81 80 84 83 84 77 74 71 70 66 66 64 64 61 59 58 56 51 47 43 42 40 38 36 35 34 32 32 32 34
56 60 62 67 69 70 68 71 81 83 86 87 87 85 83 90 90 85 83 83 83 82 83 81 82 77 72 67 65 65 64 64 63 61 61 60 57 53 50 47 44 42 41 40 38 37 36 36 38
60 62 67 70 72 72 71 74 88 85 88 86 84 86 89 91 91 87 85 85 86 83 85 82 79 82 72 55 60 65 66 67 67 64 61 61 61 58 55 53 50 47 45 44 43 42 42 41 41
68 69 72 75 79 79 79 78 92 84 86 84 83 87 91 91 89 88 87 85 87 85 82 83 82 78 72 40 66 65 65 66 70 68 66 61 62 62 60 57 55 53 50 48 47 46 46 46 46
72 75 76 79 80 83 85 82 87 85 86 83 87 86 87 88 88 90 88 89 87 88 84 82 84 76 79 81 71 69 74 70 71 70 70 65 63 64 63 60 58 55 54 53 51 50 50 50 50
78 78 81 84 87 88 88 78 79 87 85 89 88 84 83 83 87 87 88 90 89 91 91 81 87 79 75 67 59 77 67 69 74 69 71 70 65 65 64 61 58 55 54 52 53 53 52 52 54
81 83 85 89 93 86 84 77 81 86 90 89 87 80 74 74 79 78 81 85 90 93 95 81 89 83 78 79 72 70 70 67 63 66 70 70 65 67 67 64 60 57 55 53 52 51 50 48 48
87 87 90 88 89 87 82 74 85 89 87 83 75 67 63 65 69 71 74 79 83 92 95 86 93 87 83 88 73 66 61 62 71 69 70 69 66 64 67 66 63 60 58 56 54 54 53 52 47
90 88 87 87 84 84 79 76 84 86 80 72 63 58 58 59 60 63 69 71 78 83 87 94 95 90 91 99 80 79 68 64 58 64 76 72 67 65 65 65 64 63 61 59 58 57 55 54 48
80 81 82 83 79 74 83 76 80 81 69 62 57 54 54 57 56 58 58 66 71 71 82 99 99 94 94 95 112 102 82 74 70 75 75 73 70 65 63 62 63 63 63 61 59 58 56 55 52
81 79 71 69 73 75 85 82 79 68 63 56 54 53 49 48 48 51 56 62 64 68 81 98 102 97 97 95 102 96 73 79 80 76 75 76 74 69 69 65 63 62 63 61 61 60 58 57 57
74 67 65 67 73 80 86 86 73 59 57 53 48 45 39 41 41 40 48 53 57 69 80 93 101 97 98 96 91 85 57 69 61 72 72 76 74 69 69 67 64 63 64 64 63 63 60 60 59
70 66 62 60 69 80 86 78 61 58 52 46 42 38 37 34 35 32 39 45 53 65 75 87 100 100 97 98 102 104 91 72 73 67 66 68 70 67 68 65 64 63 64 65 65 65 63 63 64
65 65 65 62 70 81 87 68 62 56 46 36 33 35 34 28 27 27 33 40 51 63 77 85 100 101 99 102 96 104 101 97 81 71 71 75 68 66 67 69 69 67 64 64 65 65 64 64 65
57 58 63 65 76 82 82 64 58 50 40 31 29 30 31 28 24 26 32 39 49 64 76 84 97 104 100 96 94 90 104 101 89 74 69 73 78 73 69 68 69 69 67 67 66 66 65 61 61
55 57 62 71 76 81 74 62 50 41 35 31 27 24 24 22 20 25 30 37 48 63 74 81 97 103 97 89 88 84 88 87 90 77 75 73 73 74 71 68 68 68 67 66 66 65 65 67 67
48 53 62 69 78 76 61 57 43 35 28 27 25 21 19 18 18 23 28 37 49 60 72 83 95 100 96 92 84 80 76 82 74 63 75 68 68 71 70 68 68 67 68 65 65 62 62 67 69
49 55 64 71 79 68 56 45 34 32 28 24 21 15 12 12 15 21 30 39 52 63 74 85 96 98 98 88 82 70 73 79 84 80 77 69 74 72 68 66 67 69 68 65 63 66 68 64 67
Wind_Direction
259 260 260 260 259 260 258 257 260 263 265 264 266 267 266 268 271 270 270 270 271 270 268 265 263 261 261 258 259 264 270 270 271 273 275 277 273 260 258 258 255 255 263 271 277 281 273 272 267
259 260 260 261 260 258 259 262 261 263 263 265 263 262 263 264 262 264 262 263 263 264 266 264 264 263 261 262 262 264 266 268 266 266 271 274 271 258 257 255 255 254 257 265 275 282 278 271 268
259 261 262 265 264 259 261 261 262 261 262 263 263 262 260 261 258 259 261 259 259 259 260 262 262 262 261 262 263 263 264 264 262 262 265 270 268 256 253 255 254 255 255 260 269 276 281 272 272
262 264 265 265 264 264 260 260 263 263 262 263 263 262 259 258 258 257 259 258 257 256 258 258 260 259 260 260 258 260 262 260 259 259 260 263 266 257 250 254 254 256 257 258 261 268 274 276 277
263 265 264 264 264 264 265 262 265 265 264 265 263 263 263 260 257 258 258 258 257 256 254 257 257 258 259 259 256 257 257 258 259 258 258 260 262 258 251 252 256 257 258 260 262 264 270 274 274
263 263 264 262 263 263 263 264 263 264 263 263 263 264 261 258 260 256 257 257 255 255 255 254 256 256 258 257 256 255 256 259 258 257 257 258 263 258 254 253 255 259 260 263 263 268 270 273 276
265 266 268 267 268 269 268 268 266 264 263 262 261 260 260 258 259 259 256 254 254 252 252 253 252 254 254 254 256 253 256 258 261 259 256 257 262 260 254 253 255 257 259 261 266 270 272 274 281
270 269 270 270 269 265 266 269 269 269 268 262 261 259 261 259 255 254 255 255 254 252 251 250 250 253 251 251 252 253 253 256 258 261 258 257 260 260 255 253 254 256 259 262 266 269 272 275 276
267 268 269 268 267 268 270 270 271 272 270 269 266 264 263 262 258 256 254 254 254 253 250 249 248 248 251 249 249 250 252 254 255 258 260 260 259 259 255 252 255 257 258 260 265 270 274 276 277
269 269 268 268 268 271 272 270 271 272 272 270 270 268 265 263 262 257 254 252 253 253 251 248 246 243 246 247 246 247 249 252 255 255 257 259 259 256 253 253 254 256 257 259 263 268 272 277 279
265 267 268 270 271 270 272 273 272 273 272 271 271 270 269 268 262 257 257 256 252 248 248 247 245 243 242 245 245 246 246 249 252 255 255 256 258 257 252 252 254 256 256 258 262 265 269 274 276
267 268 270 272 272 272 271 273 273 273 272 273 272 272 271 269 265 262 255 253 252 249 246 244 244 244 242 242 244 245 245 246 249 254 256 256 256 257 255 254 253 255 255 260 265 266 268 272 277
268 270 270 271 271 273 275 277 276 278 273 274 273 272 271 269 266 262 259 253 250 248 246 243 238 240 243 242 243 245 246 246 246 249 254 256 256 256 256 255 256 256 256 259 264 267 271 276 280
271 273 275 274 275 277 278 284 280 279 274 274 274 272 267 266 265 262 258 254 249 246 243 242 239 233 235 240 240 243 243 245 246 245 249 253 255 255 256 257 257 259 260 263 264 269 273 279 283
276 276 278 279 280 282 282 292 284 281 276 275 273 271 267 264 265 261 255 252 249 242 239 238 238 234 230 234 245 244 244 246 246 246 245 249 253 254 255 257 258 259 260 264 267 270 274 278 281
280 281 282 283 286 287 288 293 288 283 278 277 276 272 269 267 263 260 256 251 246 245 238 232 233 232 224 219 242 244 245 242 241 245 246 246 251 253 255 255 257 259 262 264 267 271 274 278 282
281 284 286 286 288 289 292 296 290 285 282 282 278 274 271 267 262 257 252 247 242 241 237 231 229 227 222 209 226 235 241 246 247 241 245 245 248 252 254 257 258 261 262 264 268 271 273 276 280
283 285 288 289 291 294 295 292 289 288 287 285 283 280 274 267 262 255 251 245 241 237 236 225 229 221 216 201 215 232 234 248 243 241 243 245 246 248 253 256 258 261 264 267 269 271 275 278 280
285 287 288 291 294 298 293 295 292 291 291 289 287 281 274 266 261 255 249 245 240 235 233 223 225 220 208 201 208 234 237 234 236 237 240 242 246 248 251 253 256 258 262 266 270 274 277 280 281
286 287 290 292 295 295 293 297 295 296 293 291 286 280 271 262 257 251 246 242 238 234 229 222 222 216 209 201 200 217 216 234 243 244 239 240 243 247 249 251 254 257 260 263 267 271 275 279 282
287 288 291 295 296 296 296 302 304 296 296 290 284 277 269 263 256 251 246 240 236 231 225 220 219 213 210 204 207 212 218 237 241 250 245 238 242 247 248 251 253 256 259 262 266 270 274 279 279
289 293 295 296 295 297 297 306 308 298 296 291 286 279 270 263 259 252 246 241 236 228 220 215 214 210 209 204 210 215 224 235 238 245 239 238 241 245 248 250 252 255 259 262 266 269 273 277 279
291 297 297 298 299 304 307 310 308 304 300 295 290 283 277 269 258 249 244 237 232 222 215 212 211 207 206 206 209 216 224 233 236 234 237 237 239 244 247 252 253 255 258 262 265 268 271 275 276
293 297 301 305 307 310 312 313 312 305 300 297 289 282 275 268 262 246 237 235 226 217 212 209 207 204 203 203 202 200 203 216 225 232 230 232 238 241 246 250 254 256 258 261 265 267 270 273 275
294 300 300 305 308 313 315 316 312 308 303 297 293 288 277 266 262 245 231 226 218 213 207 206 202 202 201 201 202 199 208 210 221 221 225 230 233 239 245 250 253 257 259 260 264 267 268 272 275
297 303 306 312 316 318 319 316 315 312 302 294 288 286 284 273 256 236 224 216 210 206 201 201 198 198 200 203 203 206 211 217 225 224 237 232 238 240 244 248 252 255 257 260 263 266 270 272 273
301 304 309 317 320 323 321 320 319 312 306 302 298 287 281 272 255 234 217 209 205 202 197 195 194 197 199 201 203 208 214 220 226 231 235 234 236 240 244 246 249 251 256 260 262 266 269 271 275
307 309 313 321 322 328 325 324 320 312 312 312 305 291 280 270 253 230 211 201 199 195 192 190 190 194 198 200 204 208 213 217 221 232 239 236 237 239 240 244 247 252 255 259 262 265 268 271 274
305 310 319 322 325 330 328 323 318 317 318 314 304 298 284 264 235 221 204 193 193 190 187 187 187 191 195 198 203 208 210 216 224 230 230 228 232 235 239 243 248 252 255 257 260 263 266 269 272
313 320 321 325 328 333 330 324 318 319 322 314 306 301 283 251 219 205 193 187 186 182 183 183 184 188 193 196 200 205 209 219 226 231 227 229 237 242 244 246 248 251 254 258 261 261 268 268 268
Height
10812 10813 10813 10815 10818 10818 10812 10815 10816 10819 10825 10822 10828 10829 10828 10828 10830 10832 10832 10832 10834 10834 10835 10836 10837 10839 10841 10842 10843 10843 10843 10843 10844 10844 10844 10844 10844 10844 10844 10844 10844 10844 10844 10844 10843 10843 10843 10843 10842
10803 10804 10805 10807 10809 10809 10805 10809 10807 10815 10812 10817 10819 10820 10821 10822 10820 10823 10825 10826 10827 10828 10829 10829 10831 10832 10834 10836 10837 10838 10839 10839 10839 10840 10840 10840 10840 10840 10841 10841 10841 10842 10842 10842 10841 10841 10840 10841 10841
10794 10796 10798 10798 10798 10799 10799 10799 10803 10805 10805 10807 10809 10809 10813 10817 10813 10816 10816 10819 10820 10822 10822 10824 10825 10826 10828 10830 10832 10833 10833 10834 10834 10835 10836 10836 10836 10837 10837 10838 10838 10839 10839 10839 10839 10838 10838 10838 10838
10785 10787 10789 10788 10788 10788 10789 10792 10793 10795 10797 10797 10802 10798 10805 10806 10807 10808 10807 10810 10812 10815 10816 10817 10819 10820 10822 10824 10825 10827 10828 10828 10829 10830 10831 10832 10832 10833 10833 10834 10834 10835 10835 10835 10835 10836 10835 10835 10834
10776 10778 10780 10779 10779 10780 10779 10784 10784 10783 10786 10787 10790 10788 10793 10796 10797 10798 10799 10800 10803 10806 10810 10810 10813 10814 10816 10817 10819 10821 10822 10823 10824 10825 10826 10827 10828 10829 10829 10830 10830 10830 10830 10831 10831 10832 10832 10832 10831
10767 10768 10769 10770 10769 10771 10770 10773 10771 10772 10772 10774 10774 10776 10776 10787 10783 10787 10787 10789 10793 10796 10800 10803 10805 10807 10810 10811 10813 10816 10817 10817 10819 10820 10821 10822 10823 10824 10825 10825 10826 10826 10826 10826 10827 10827 10828 10827 10827
10755 10756 10756 10757 10757 10758 10757 10758 10758 10758 10758 10756 10763 10758 10759 10771 10769 10772 10774 10776 10779 10785 10788 10793 10796 10798 10802 10804 10807 10809 10811 10813 10814 10815 10816 10817 10818 10819 10819 10821 10821 10821 10822 10822 10822 10823 10823 10823 10823
10743 10743 10744 10745 10744 10745 10744 10742 10743 10742 10741 10741 10743 10747 10745 10754 10757 10752 10758 10761 10766 10772 10776 10782 10786 10788 10792 10795 10799 10801 10804 10806 10808 10810 10811 10812 10812 10813 10814 10815 10816 10817 10817 10818 10818 10818 10818 10818 10818
10731 10732 10733 10731 10730 10729 10730 10727 10726 10727 10723 10721 10721 10728 10730 10735 10743 10739 10744 10747 10751 10758 10762 10768 10773 10778 10779 10784 10788 10793 10795 10798 10801 10803 10805 10806 10807 10808 10808 10809 10810 10811 10812 10812 10813 10813 10813 10813 10813
10718 10718 10718 10716 10716 10716 10714 10714 10710 10709 10705 10701 10704 10706 10710 10715 10720 10722 10724 10729 10735 10741 10747 10752 10758 10764 10766 10770 10777 10782 10786 10789 10792 10795 10797 10800 10802 10802 10803 10804 10805 10805 10806 10807 10807 10807 10808 10808 10808
10706 10707 10704 10702 10702 10702 10699 10696 10695 10692 10685 10682 10685 10688 10691 10695 10699 10701 10703 10708 10714 10720 10727 10736 10741 10749 10755 10758 10766 10770 10776 10780 10783 10786 10789 10792 10795 10797 10798 10798 10799 10799 10800 10801 10801 10802 10802 10802 10802
10692 10691 10690 10688 10687 10686 10685 10682 10679 10674 10665 10661 10667 10669 10669 10672 10677 10677 10684 10686 10692 10698 10706 10715 10725 10734 10740 10748 10754 10759 10765 10769 10774 10777 10780 10784 10787 10791 10792 10793 10793 10793 10794 10795 10796 10796 10796 10796 10795
10679 10677 10676 10672 10670 10671 10671 10663 10659 10652 10644 10642 10641 10647 10647 10646 10650 10654 10658 10665 10671 10677 10685 10694 10709 10717 10726 10734 10742 10748 10754 10759 10763 10767 10770 10775 10779 10783 10786 10786 10786 10787 10788 10788 10789 10790 10790 10789 10789
10668 10664 10660 10656 10653 10654 10655 10646 10631 10628 10624 10621 10620 10622 10624 10619 10620 10628 10633 10638 10646 10653 10662 10672 10686 10700 10712 10723 10731 10735 10740 10746 10751 10755 10759 10764 10770 10774 10777 10779 10780 10780 10781 10781 10782 10782 10783 10782 10781
10653 10650 10644 10638 10634 10635 10633 10632 10606 10606 10598 10599 10598 10593 10593 10595 10594 10599 10604 10611 10615 10627 10637 10653 10664 10679 10700 10715 10720 10726 10728 10733 10739 10744 10748 10753 10759 10764 10767 10770 10772 10772 10773 10774 10774 10775 10775 10775 10775
10636 10634 10628 10621 10615 10612 10611 10619 10579 10577 10572 10574 10572 10567 10562 10563 10566 10569 10575 10584 10591 10600 10616 10631 10642 10661 10687 10700 10697 10711 10715 10718 10724 10731 10737 10742 10748 10753 10757 10760 10762 10764 10765 10766 10766 10767 10767 10767 10767
10621 10617 10611 10603 10597 10591 10584 10592 10560 10551 10543 10547 10541 10538 10532 10531 10533 10535 10541 10551 10563 10573 10588 10612 10621 10641 10665 10686 10695 10696 10699 10705 10711 10717 10725 10731 10737 10742 10746 10749 10752 10755 10756 10756 10758 10758 10759 10759 10759
10606 10601 10593 10583 10574 10571 10561 10563 10550 10525 10521 10516 10509 10504 10500 10497 10494 10500 10508 10520 10535 10548 10560 10588 10600 10622 10644 10662 10672 10673 10682 10691 10697 10703 10712 10720 10725 10731 10736 10740 10743 10745 10746 10747 10748 10749 10750 10750 10749
10587 10584 10578 10566 10551 10548 10536 10539 10521 10507 10492 10486 10477 10472 10470 10467 10464 10472 10481 10490 10505 10519 10534 10568 10578 10606 10625 10644 10656 10663 10666 10678 10683 10690 10698 10706 10713 10720 10726 10730 10733 10735 10737 10738 10739 10740 10740 10740 10739
10567 10567 10558 10553 10536 10526 10521 10523 10496 10477 10469 10458 10449 10445 10441 10439 10438 10445 10453 10462 10477 10489 10509 10543 10555 10583 10603 10624 10636 10633 10652 10662 10669 10679 10687 10695 10702 10709 10715 10719 10722 10724 10727 10728 10729 10730 10730 10730 10729
10549 10549 10542 10531 10525 10505 10496 10502 10479 10450 10443 10430 10425 10420 10416 10414 10414 10421 10427 10438 10447 10461 10487 10514 10533 10560 10580 10604 10619 10626 10640 10650 10657 10666 10674 10682 10690 10698 10704 10707 10711 10714 10716 10717 10719 10720 10721 10720 10719
10539 10531 10524 10514 10501 10498 10472 10482 10458 10426 10418 10409 10402 10398 10395 10392 10394 10397 10406 10412 10422 10442 10459 10481 10507 10536 10559 10582 10598 10613 10632 10634 10641 10651 10659 10670 10680 10687 10692 10696 10699 10703 10705 10707 10708 10709 10711 10710 10709
10524 10519 10507 10497 10486 10473 10453 10447 10429 10411 10396 10388 10380 10375 10374 10372 10374 10376 10381 10387 10403 10421 10434 10456 10483 10516 10544 10565 10589 10609 10621 10628 10630 10640 10649 10658 10667 10674 10680 10685 10689 10692 10695 10697 10698 10699 10700 10700 10697
10511 10506 10494 10486 10468 10455 10438 10420 10408 10393 10378 10369 10363 10359 10357 10354 10356 10360 10364 10370 10384 10398 10417 10440 10470 10502 10527 10549 10572 10593 10603 10609 10614 10626 10634 10645 10655 10662 10668 10674 10678 10682 10685 10687 10687 10688 10689 10688 10686
10496 10488 10485 10480 10463 10440 10420 10404 10391 10374 10364 10354 10347 10343 10339 10341 10341 10345 10348 10355 10368 10383 10405 10428 10457 10487 10514 10534 10547 10569 10582 10593 10599 10612 10624 10635 10644 10650 10657 10663 10668 10671 10673 10675 10675 10676 10676 10676 10674
10485 10473 10462 10462 10448 10429 10399 10388 10372 10362 10352 10343 10337 10332 10328 10328 10328 10331 10336 10344 10354 10370 10388 10415 10442 10475 10501 10522 10542 10561 10573 10582 10591 10605 10615 10623 10631 10638 10645 10652 10657 10660 10662 10663 10665 10665 10665 10663 10661
10478 10465 10452 10446 10427 10411 10385 10372 10360 10349 10342 10334 10328 10323 10319 10318 10318 10322 10326 10335 10345 10360 10379 10405 10437 10464 10488 10517 10536 10552 10566 10575 10589 10596 10603 10610 10620 10628 10635 10641 10645 10648 10651 10652 10653 10653 10652 10650 10649
10463 10454 10445 10429 10418 10402 10373 10359 10351 10340 10332 10324 10319 10315 10312 10311 10312 10315 10320 10330 10341 10355 10375 10403 10430 10458 10488 10515 10529 10542 10555 10565 10578 10587 10595 10603 10611 10618 10624 10629 10633 10637 10639 10640 10640 10639 10637 10636 10636
10457 10449 10436 10423 10401 10385 10370 10352 10341 10335 10328 10320 10313 10309 10306 10306 10306 10310 10318 10326 10338 10355 10377 10398 10428 10456 10482 10503 10523 10537 10547 10560 10571 10578 10587 10593 10600 10607 10613 10619 10623 10627 10628 10627 10626 10625 10623 10623 10622
10447 10438 10425 10414 10394 10375 10361 10349 10340 10330 10323 10317 10311 10306 10304 10304 10304 10309 10316 10325 10339 10356 10376 10398 10424 10450 10471 10497 10516 10530 10542 10551 10557 10567 10577 10583 10590 10598 10606 10610 10614 10614 10613 10614 10613 10612 10612 10610 10606